Temp_Advection
nan nan nan nan nan nan nan nan nan nan nan nan nan nan nan nan nan nan nan nan nan nan nan nan nan nan nan nan nan nan nan nan nan nan nan nan nan nan nan nan nan nan nan nan
nan 0 0 0 -0 0 0 0 0 1 1 0 -0 -0 -0 0 0 0 0 0 0 0 0 0 -0 -0 0 -0 -1 -1 -1 -0 -0 0 0 -0 0 0 -0 -0 0 -1 -0 nan
nan 0 0 1 1 0 0 0 -0 -0 0 -0 -0 -0 -0 0 -0 0 0 0 -0 -0 0 -0 0 0 0 0 -0 -0 -1 -0 -0 -1 -0 -1 -0 -0 -1 -1 -0 -1 -2 nan
nan 0 0 1 1 0 0 0 -0 -0 -0 0 -0 -0 -0 -0 -0 0 0 0 -0 -0 -0 -0 -0 0 0 -0 -0 1 0 0 0 -1 1 -0 -0 -1 -1 -0 -1 -1 -1 nan
nan 0 0 1 1 1 0 -0 0 0 -0 0 -0 -0 -0 -1 0 -1 -0 -1 -0 0 -0 -1 0 -0 -0 -0 0 1 0 0 -0 -0 1 1 -0 -0 0 -1 -1 -1 -0 nan
nan 0 0 0 1 1 -0 -0 -0 -0 -0 -0 -0 -0 -1 -0 0 -1 -0 0 0 -0 -2 -0 1 1 0 0 -0 -0 -0 -0 -0 1 -0 0 -1 2 -0 -1 0 1 -0 nan
nan 0 0 0 0 0 1 0 0 -0 -0 -1 -0 -0 -0 -0 -0 -0 0 0 -0 -0 1 1 1 0 0 1 -0 0 -0 -0 -0 0 -0 -1 1 0 -1 0 -0 1 0 nan
nan -0 -0 -0 0 0 0 2 0 -0 -0 -0 0 -0 -0 -0 0 0 0 -0 1 1 1 -0 0 -0 0 -0 0 1 -0 -0 -0 0 -0 -1 3 0 1 1 -1 1 -0 nan
nan -1 -1 -0 -0 0 0 0 1 1 -0 -0 -0 0 1 0 0 0 0 0 1 1 -0 -0 -0 -0 -0 0 0 -0 -0 -0 0 -0 -0 0 2 0 0 0 -1 1 1 nan
nan 1 0 -1 -0 -0 -0 0 1 2 -0 -2 1 0 0 0 0 0 0 0 1 1 -0 -0 0 0 0 0 0 -0 0 0 -0 -0 0 1 1 -0 -0 0 2 0 1 nan
nan -0 -1 -0 -0 -1 -1 -0 0 2 0 -1 -0 -0 1 -0 -1 0 0 -0 0 0 0 0 0 0 1 0 -0 0 -0 -0 -0 -0 0 3 -2 1 -1 0 -0 -0 0 nan
nan -0 -0 -0 -0 -0 -0 -1 -0 -1 -0 -0 -1 -0 0 -0 -0 2 -0 0 -0 -0 -0 0 0 0 -0 0 1 0 -1 0 -0 0 1 -0 -1 -0 1 0 -0 -0 -0 nan
nan -0 -0 -0 -0 -0 -0 -0 -0 -0 -1 -1 -0 -0 -0 0 0 1 1 0 -0 -0 0 -0 0 0 -0 -0 0 -1 0 0 -0 -0 1 0 0 -0 0 0 0 0 0 nan
nan -0 -0 -0 -1 -0 -0 -0 0 0 0 -0 -1 0 0 0 0 1 1 1 1 1 1 0 0 0 0 0 0 0 0 0 -0 1 0 0 0 1 1 1 0 1 1 nan
nan -1 -0 -0 -0 -0 0 -0 -0 -0 -0 -0 -0 -0 -0 0 0 0 1 2 2 1 0 0 0 0 0 -0 0 1 1 1 1 1 -0 -0 -0 0 1 1 1 1 1 nan
nan -0 -1 -0 -0 0 0 -1 -2 1 1 0 -0 0 1 2 3 2 2 2 1 1 0 0 0 0 0 -0 0 -0 0 0 0 0 0 0 0 0 1 1 1 1 1 nan
nan -1 -1 -0 0 -0 -0 -0 0 0 -0 -0 0 0 0 1 1 1 1 1 1 1 0 0 0 0 0 0 1 -1 0 0 0 0 0 -0 0 0 0 1 1 1 1 nan
nan -0 -0 -0 -0 -0 -1 -1 -0 1 0 -0 0 -0 0 0 0 0 0 0 0 -0 0 0 0 0 0 0 -0 -0 0 0 0 0 0 0 0 0 0 1 0 0 0 nan
nan 0 -0 -0 -0 -0 -1 -1 -0 1 0 0 0 0 1 1 -0 0 0 0 -0 -0 -0 0 -0 0 0 -0 -0 -0 -0 -0 -0 0 0 0 0 0 0 0 0 0 0 nan
nan -0 -0 0 -0 -1 0 0 0 1 1 2 0 -0 0 0 -0 -0 -0 -0 0 0 0 0 -0 0 -0 0 0 -0 -0 0 -0 -1 -0 0 0 0 0 0 0 0 0 nan
nan -0 0 0 -0 0 0 0 0 -0 0 -1 -0 -0 0 0 0 -0 -0 -0 0 -0 0 -0 0 0 0 0 0 0 0 0 0 0 -0 -0 -0 0 0 0 0 0 0 nan
nan 0 0 0 0 0 0 -0 -0 -0 0 -0 -0 0 0 0 0 -0 0 0 -0 0 -0 -0 0 0 -0 0 0 0 0 0 0 0 0 0 0 0 0 0 0 0 0 nan
nan 0 0 0 0 0 0 0 -0 -0 -0 -0 0 0 -0 0 -0 -0 0 0 -0 0 -0 -0 0 -1 -0 -0 0 0 0 0 0 0 0 0 0 0 0 0 0 0 0 nan
nan 0 0 -0 -1 -1 -0 -0 -0 -0 -0 -0 0 -0 0 -0 0 -0 -0 -0 -0 -0 -0 0 0 -0 -1 -0 -0 -0 -0 -0 0 0 0 0 0 -0 0 0 0 0 0 nan
nan -1 -1 -1 0 -0 -0 -0 -0 0 0 0 0 0 0 -0 -0 -0 -0 -0 -0 -0 0 0 -0 0 -0 -0 -0 -0 0 0 0 0 0 0 0 0 0 0 -0 -0 -0 nan
nan -1 -0 -0 -0 -0 -0 -0 0 0 0 0 0 -0 -0 -0 -0 -0 -0 -0 0 0 0 -0 -0 -0 0 -0 -0 0 0 0 0 0 0 0 0 0 0 0 0 -0 -0 nan
nan nan nan nan nan nan nan nan nan nan nan nan nan nan nan nan nan nan nan nan nan nan nan nan nan nan nan nan nan nan nan nan nan nan nan nan nan nan nan nan nan nan nan nan
Wind_Speed
19 18 18 17 17 14 8 4 1 12 19 5 4 3 6 2 4 8 3 3 7 8 8 7 5 8 6 15 17 9 7 4 4 9 2 3 4 7 7 4 6 4 2 10
19 18 15 15 15 14 6 4 4 17 22 4 3 5 4 4 6 5 7 7 6 3 8 4 7 5 2 23 13 11 9 3 1 3 3 1 5 6 4 5 2 8 4 9
21 17 17 17 16 11 8 4 2 6 16 8 3 2 5 5 7 4 7 4 5 4 5 6 4 5 4 20 14 9 18 5 8 12 3 6 6 6 11 12 4 7 18 30
22 21 22 21 17 15 12 9 6 8 5 8 10 5 3 4 5 7 11 3 11 8 6 3 7 8 3 8 16 12 7 7 8 16 13 5 8 6 15 19 28 12 33 17
26 27 23 22 20 19 22 9 6 7 3 4 8 11 7 14 12 9 7 10 10 13 12 16 8 9 8 7 11 13 6 4 6 11 15 16 23 20 20 25 26 28 33 32
27 25 24 23 22 29 25 26 17 8 9 5 6 10 15 14 9 14 24 16 10 15 28 30 32 23 13 10 12 16 8 6 5 8 2 3 12 24 28 22 19 24 21 33
27 25 25 24 23 34 38 33 24 11 7 11 12 5 14 16 15 20 10 18 9 7 17 12 17 20 19 17 14 20 8 11 4 2 2 7 6 1 11 22 24 20 17 19
32 29 28 26 25 25 41 43 32 15 7 15 14 19 16 20 21 21 25 30 31 19 9 2 4 3 2 8 15 17 14 9 5 4 7 7 19 6 8 9 14 21 24 25
29 30 30 29 28 24 28 51 48 25 6 14 27 16 23 14 12 13 21 25 22 20 5 4 6 6 4 4 3 2 15 10 7 4 5 8 6 3 9 5 10 13 18 20
32 30 29 30 31 29 29 32 31 39 15 37 22 9 9 10 8 5 1 7 8 25 6 6 7 6 5 5 7 6 4 6 19 18 12 8 6 8 12 4 10 3 17 13
26 26 24 24 27 30 25 36 33 32 11 36 27 33 26 8 15 8 7 4 4 4 6 5 5 6 8 3 5 9 10 10 5 8 7 14 11 8 9 2 3 2 7 12
25 25 25 25 24 22 26 37 36 33 33 24 29 31 38 43 43 26 16 8 8 11 4 5 3 5 4 4 6 3 5 10 6 11 8 2 32 1 11 2 2 3 7 13
27 27 27 26 26 24 24 32 31 25 26 29 27 24 33 37 41 40 19 12 18 14 16 5 5 5 6 6 7 4 6 4 4 2 6 6 19 18 8 10 5 6 7 11
26 27 27 26 26 25 24 27 29 27 19 6 23 30 26 27 31 37 46 42 20 25 21 8 3 4 9 5 3 6 4 7 7 6 3 1 11 26 23 13 10 11 12 12
28 31 28 26 28 26 25 28 31 30 28 5 7 15 22 22 21 26 35 42 34 16 4 3 4 2 3 1 1 4 6 7 6 6 4 1 2 4 16 16 14 14 14 13
27 27 25 26 26 24 23 19 30 34 39 16 8 19 32 38 33 29 27 26 19 14 7 2 2 3 3 4 4 1 3 2 1 2 6 7 6 6 8 13 13 13 12 10
26 25 27 21 23 21 23 8 2 7 5 9 5 3 3 7 7 8 10 12 9 7 3 3 2 3 2 2 4 4 7 7 6 7 9 7 6 5 9 11 13 12 11 9
20 19 22 24 20 23 26 29 30 32 29 9 3 1 2 10 5 3 6 4 4 2 3 3 1 1 1 4 3 9 9 9 8 6 4 6 9 10 11 11 11 9 8 6
21 19 20 24 20 14 21 22 23 23 19 3 3 5 9 8 2 3 3 3 2 1 2 1 2 2 5 1 5 12 12 7 10 10 9 10 10 10 10 9 8 6 5 5
16 16 8 6 7 17 21 11 5 11 14 11 2 2 2 4 3 1 2 2 2 3 1 1 2 3 1 3 7 10 13 10 13 12 7 9 9 9 9 6 5 5 4 5
7 4 5 11 12 6 5 2 2 2 1 6 4 4 2 2 2 2 0 1 0 1 2 1 1 3 3 11 11 12 11 12 8 5 6 7 7 8 6 5 3 3 5 7
5 6 12 12 4 1 1 1 2 3 1 4 2 3 3 2 2 2 1 1 1 2 3 0 3 3 5 12 13 14 14 11 9 9 8 9 7 7 5 2 4 6 7 9
9 3 4 2 1 1 3 2 2 1 2 2 1 1 2 2 3 2 1 1 1 1 1 3 2 5 11 15 17 17 14 12 10 9 8 7 5 1 2 4 5 6 6 9
5 4 2 3 3 3 2 2 1 2 3 1 2 2 1 2 2 1 2 1 1 1 2 4 1 9 15 15 16 15 15 12 10 8 6 3 1 3 4 5 5 5 6 7
4 6 3 4 1 2 4 4 3 4 2 3 1 2 1 1 2 2 3 1 3 3 3 2 1 12 16 17 16 14 12 10 9 7 5 3 4 4 5 5 5 5 6 7
6 10 3 8 1 3 6 10 5 4 5 4 1 0 2 2 2 2 3 2 2 2 1 2 6 12 12 11 12 11 10 10 9 7 5 5 4 4 4 5 6 5 5 4
6 4 11 6 1 3 5 8 9 10 7 2 1 2 1 1 1 1 1 2 2 2 0 6 6 6 8 10 12 12 12 11 8 7 6 5 4 4 4 4 7 6 4 4
Wind_Direction
291 295 300 303 303 304 288 233 167 172 168 166 217 195 208 216 192 195 210 174 187 191 178 191 230 226 232 168 148 168 193 144 205 214 251 152 175 187 160 174 218 234 277 269
284 286 291 297 296 293 263 217 162 176 179 201 225 267 265 238 173 201 188 213 207 158 183 223 201 210 212 172 167 165 183 205 296 295 10 165 215 198 154 100 95 202 175 262
280 277 287 296 279 258 217 202 169 171 204 242 199 195 239 235 217 207 192 165 129 146 209 232 230 235 207 190 201 181 162 184 200 236 167 130 196 194 194 197 192 234 227 259
271 274 281 283 255 241 206 206 229 198 183 227 214 175 253 209 226 214 204 225 214 173 192 219 229 211 176 204 218 189 179 240 215 252 265 192 203 174 191 210 227 223 263 243
274 273 276 267 243 236 209 197 199 200 238 211 182 206 214 225 226 157 215 230 212 200 218 203 221 190 191 197 193 192 189 258 191 267 237 240 254 239 226 220 232 241 254 272
272 270 271 270 258 225 214 225 232 220 202 189 176 204 215 220 206 220 231 216 220 205 226 226 238 232 224 196 169 191 185 208 186 260 51 7 273 226 220 230 233 223 241 245
268 265 267 266 259 253 246 234 223 197 239 211 222 225 219 233 217 245 229 229 224 243 237 243 247 249 245 212 201 181 189 197 183 232 103 256 274 310 228 226 241 229 249 256
269 268 266 264 260 256 252 246 216 214 247 236 233 235 242 248 243 247 250 246 247 247 197 192 245 213 301 230 221 205 202 182 212 221 205 301 294 197 172 175 258 224 234 247
266 265 261 259 257 253 256 245 247 228 233 241 237 235 228 237 242 255 246 250 248 223 179 192 219 231 200 223 219 16 207 214 198 168 226 242 236 215 173 144 277 213 204 232
272 267 262 260 258 257 251 251 254 229 232 255 240 216 218 196 191 240 183 168 187 209 204 225 231 239 179 209 203 174 170 199 221 229 240 262 209 148 154 157 271 198 199 192
274 273 267 261 257 250 251 253 256 241 239 250 240 241 229 192 201 224 182 136 189 179 204 201 198 216 208 188 204 175 173 173 200 215 232 251 138 105 198 173 71 193 194 190
274 274 269 266 264 260 248 258 260 266 250 256 264 262 257 240 245 244 213 217 158 189 182 211 202 205 163 171 244 359 227 204 187 195 213 134 181 138 200 137 108 194 196 185
271 271 270 270 267 263 247 252 260 261 269 273 263 250 258 250 244 245 239 225 221 212 208 183 206 224 162 183 227 158 243 163 226 108 215 199 201 217 223 217 204 200 194 180
281 274 272 269 267 263 255 253 255 255 258 251 264 261 259 257 241 238 239 242 234 234 223 229 192 198 191 207 188 195 188 149 205 254 230 224 229 220 227 215 211 190 174 176
275 276 268 265 265 265 263 258 255 249 238 264 274 268 268 260 253 245 244 246 242 231 195 207 224 183 162 91 96 228 183 185 197 243 122 97 98 237 227 216 199 195 195 182
282 279 275 267 267 262 265 265 259 252 244 248 248 246 247 252 249 240 235 239 239 224 204 207 180 219 218 191 212 87 145 126 128 128 132 122 120 141 184 185 185 185 183 184
286 292 281 273 262 263 246 226 202 181 292 235 228 207 229 198 195 208 214 213 204 203 225 216 174 183 200 218 228 126 143 139 125 134 129 107 141 141 157 175 167 175 178 181
283 288 293 293 285 283 277 264 255 256 269 262 287 21 285 182 186 181 175 168 168 82 144 119 124 148 38 250 107 140 138 133 134 129 126 135 148 148 153 162 166 169 175 190
271 281 291 293 275 257 264 272 267 249 236 243 197 203 257 186 126 112 117 152 88 28 91 97 247 154 217 48 157 163 165 170 159 128 122 133 147 153 160 169 175 199 217 240
271 282 293 264 239 244 254 269 230 211 208 207 207 42 155 153 147 152 84 23 158 179 204 125 217 262 59 151 131 161 172 165 146 130 137 154 163 159 162 173 198 216 238 258
254 213 224 269 278 242 235 194 144 357 145 20 36 42 121 94 132 151 73 148 202 137 278 164 272 281 227 168 147 152 165 158 153 140 142 153 144 154 158 183 209 252 274 284
210 235 284 286 238 244 218 58 17 57 286 3 41 8 45 81 104 106 84 152 167 219 121 130 263 260 144 159 161 160 161 162 151 142 139 131 126 148 166 207 272 286 295 296
230 233 218 194 242 227 174 234 323 351 358 17 9 39 41 51 86 80 114 135 141 161 223 238 234 125 166 172 165 161 164 163 156 148 136 136 146 158 295 294 294 298 299 295
220 163 128 354 10 50 21 336 12 346 313 183 107 61 54 31 65 51 107 34 209 201 273 240 192 183 171 167 169 170 168 166 162 158 162 170 267 313 309 304 305 301 299 296
70 36 45 40 239 355 334 335 350 4 66 358 50 60 85 45 90 52 117 122 238 217 239 263 311 162 170 171 171 173 177 179 180 182 194 265 302 299 294 297 297 298 302 303
53 43 45 359 30 18 12 7 6 40 337 321 312 187 65 50 98 147 218 199 244 268 257 307 157 161 166 170 175 176 178 185 193 204 246 273 273 277 277 289 293 300 303 300
42 20 26 20 316 321 352 355 357 342 341 10 334 357 10 215 239 286 225 228 266 289 261 152 146 156 170 176 180 186 188 194 205 236 250 253 257 256 271 277 288 294 283 303
Height
1505 1504 1504 1503 1503 1503 1503 1503 1504 1504 1507 1513 1509 1509 1498 1493 1492 1495 1496 1497 1497 1500 1505 1511 1513 1504 1494 1496 1501 1510 1514 1525 1526 1519 1525 1525 1527 1529 1532 1526 1541 1552 1545 1476
1499 1499 1498 1498 1498 1497 1499 1499 1500 1503 1504 1509 1505 1497 1494 1491 1491 1491 1493 1493 1492 1495 1499 1501 1500 1496 1490 1492 1495 1498 1507 1521 1523 1512 1525 1524 1523 1523 1523 1529 1537 1536 1527 1455
1492 1492 1492 1493 1492 1493 1495 1497 1499 1500 1501 1496 1496 1496 1490 1487 1485 1485 1485 1486 1489 1494 1496 1492 1490 1492 1487 1489 1490 1493 1496 1506 1490 1462 1469 1495 1511 1513 1510 1503 1514 1488 1474 1438
1484 1485 1486 1487 1487 1487 1490 1491 1486 1484 1490 1487 1487 1488 1484 1482 1481 1483 1483 1483 1479 1482 1491 1492 1486 1486 1488 1488 1485 1489 1494 1494 1494 1477 1477 1488 1487 1491 1498 1495 1474 1481 1428 1449
1474 1475 1476 1477 1479 1481 1482 1481 1480 1479 1478 1477 1480 1482 1476 1471 1468 1474 1475 1475 1466 1475 1473 1463 1466 1473 1476 1474 1479 1485 1485 1481 1484 1474 1473 1475 1469 1469 1472 1475 1465 1461 1443 1438
1465 1465 1466 1468 1469 1470 1469 1470 1471 1471 1467 1468 1469 1461 1452 1452 1458 1456 1454 1456 1461 1461 1449 1453 1453 1455 1457 1458 1463 1470 1474 1474 1474 1463 1492 1487 1465 1451 1446 1438 1436 1436 1448 1411
1456 1456 1457 1459 1459 1456 1458 1457 1461 1463 1455 1457 1453 1450 1451 1451 1451 1448 1447 1452 1454 1447 1447 1449 1450 1450 1450 1451 1452 1453 1458 1463 1466 1464 1473 1459 1418 1432 1426 1426 1419 1422 1418 1408
1446 1446 1447 1449 1450 1450 1446 1447 1448 1448 1442 1441 1440 1442 1442 1442 1443 1441 1440 1442 1442 1443 1445 1447 1445 1447 1447 1438 1437 1442 1444 1453 1454 1455 1457 1435 1404 1427 1428 1427 1404 1406 1406 1399
1435 1436 1437 1438 1439 1441 1439 1433 1435 1436 1434 1420 1428 1429 1430 1429 1431 1432 1426 1430 1434 1436 1438 1440 1433 1426 1431 1427 1433 1435 1437 1440 1445 1447 1443 1432 1402 1413 1413 1415 1408 1386 1388 1389
1424 1423 1424 1426 1428 1429 1430 1425 1425 1424 1420 1409 1419 1418 1418 1420 1421 1420 1420 1420 1424 1427 1426 1426 1423 1421 1418 1419 1425 1439 1434 1431 1424 1418 1417 1406 1396 1403 1411 1409 1376 1377 1381 1384
1413 1413 1414 1414 1414 1418 1420 1414 1416 1414 1406 1401 1403 1405 1407 1407 1407 1408 1412 1417 1416 1419 1419 1416 1410 1408 1409 1411 1404 1414 1415 1421 1418 1416 1413 1401 1391 1406 1396 1377 1377 1379 1381 1384
1404 1404 1404 1404 1404 1405 1408 1403 1405 1405 1398 1390 1389 1390 1390 1393 1395 1397 1397 1394 1395 1398 1403 1404 1400 1396 1404 1405 1393 1405 1398 1382 1390 1392 1378 1374 1375 1374 1374 1375 1378 1380 1382 1383
1394 1394 1394 1394 1395 1395 1397 1394 1394 1397 1392 1385 1380 1374 1378 1382 1384 1388 1386 1383 1385 1383 1380 1381 1382 1385 1383 1388 1387 1387 1383 1375 1377 1378 1363 1367 1369 1370 1373 1374 1376 1379 1380 1382
1385 1385 1385 1384 1385 1385 1386 1384 1386 1388 1386 1377 1368 1370 1369 1369 1371 1373 1373 1373 1372 1374 1374 1373 1368 1370 1368 1366 1361 1370 1369 1371 1364 1363 1362 1366 1365 1366 1367 1370 1374 1377 1379 1382
1376 1374 1374 1375 1375 1375 1376 1375 1372 1375 1377 1366 1363 1361 1361 1361 1361 1362 1364 1364 1364 1364 1367 1365 1363 1360 1362 1365 1365 1360 1356 1354 1356 1347 1356 1358 1363 1364 1365 1368 1372 1375 1378 1380
1365 1364 1363 1365 1365 1366 1366 1363 1359 1361 1361 1363 1357 1351 1349 1348 1348 1350 1353 1354 1357 1359 1355 1354 1355 1355 1357 1356 1350 1351 1350 1351 1353 1354 1357 1360 1362 1364 1366 1368 1372 1374 1377 1379
1357 1357 1356 1355 1356 1356 1354 1353 1352 1352 1354 1349 1341 1339 1341 1343 1345 1346 1348 1348 1350 1353 1353 1353 1354 1354 1353 1352 1348 1350 1348 1350 1354 1357 1358 1361 1363 1365 1367 1370 1372 1374 1376 1379
1350 1350 1350 1348 1347 1346 1344 1342 1345 1349 1348 1346 1338 1340 1344 1341 1342 1345 1344 1345 1346 1348 1350 1352 1353 1354 1355 1350 1349 1350 1350 1352 1355 1356 1357 1360 1363 1365 1368 1371 1373 1374 1377 1378
1344 1344 1343 1341 1339 1338 1334 1335 1336 1338 1342 1334 1332 1335 1332 1340 1341 1342 1343 1344 1351 1352 1353 1355 1358 1351 1343 1341 1346 1348 1350 1354 1357 1356 1358 1361 1364 1366 1369 1371 1372 1375 1376 1377
1337 1339 1339 1335 1330 1329 1329 1328 1329 1329 1327 1327 1327 1331 1337 1338 1340 1342 1345 1345 1348 1346 1355 1355 1353 1343 1343 1346 1343 1345 1352 1356 1356 1358 1360 1362 1365 1365 1368 1369 1372 1373 1374 1375
1330 1333 1333 1331 1329 1327 1324 1323 1325 1325 1325 1330 1333 1333 1334 1337 1339 1341 1344 1344 1349 1351 1358 1355 1356 1353 1343 1343 1344 1348 1353 1355 1357 1358 1359 1362 1362 1363 1366 1369 1370 1371 1372 1372
1327 1329 1328 1327 1326 1323 1323 1325 1329 1331 1334 1335 1335 1336 1336 1336 1337 1339 1344 1343 1347 1341 1355 1354 1353 1343 1339 1341 1345 1350 1354 1356 1357 1359 1361 1361 1360 1364 1367 1367 1368 1369 1369 1369
1322 1325 1324 1324 1324 1324 1323 1335 1335 1332 1336 1336 1337 1337 1338 1338 1339 1341 1343 1344 1348 1355 1354 1343 1335 1339 1342 1345 1346 1349 1353 1356 1358 1359 1360 1361 1363 1364 1364 1365 1366 1366 1367 1366
1321 1321 1325 1330 1334 1341 1343 1343 1340 1341 1340 1339 1338 1339 1340 1340 1341 1342 1342 1355 1353 1351 1353 1339 1334 1337 1340 1342 1346 1349 1353 1356 1357 1358 1360 1361 1362 1362 1363 1363 1364 1365 1365 1364
1321 1325 1340 1346 1347 1347 1346 1344 1343 1341 1341 1341 1340 1341 1342 1342 1344 1346 1351 1353 1348 1345 1339 1337 1336 1337 1339 1342 1345 1349 1352 1354 1357 1359 1360 1360 1360 1360 1361 1362 1363 1363 1363 1362
1332 1342 1346 1348 1347 1348 1348 1346 1345 1343 1343 1342 1341 1342 1342 1344 1345 1346 1342 1339 1333 1336 1339 1338 1338 1339 1340 1343 1346 1349 1352 1354 1356 1357 1358 1358 1359 1359 1360 1360 1360 1361 1361 1361
1347 1355 1355 1355 1355 1353 1351 1350 1348 1346 1344 1343 1342 1341 1344 1348 1344 1341 1342 1339 1340 1340 1339 1339 1340 1340 1342 1344 1346 1348 1351 1353 1354 1355 1356 1356 1356 1357 1358 1358 1358 1358 1359 1359